This is the latest recevied weather packets stored in our database for station/object CE3TPB-1. If no packets are shown the sender has not sent any weather packets the latest 10 day(s).
| Time | Temp. | Humidity | Pressure | Rain* | Wind** | Luminosity | Snow |
|---|---|---|---|---|---|---|---|
| 1777655314 | 21.67° C | 29% | 1023.9 hPa | - | - | - | - |
| 1777612497 | 22.78° C | 30% | 1020.8 hPa | - | - | - | - |
| 1777611897 | 22.78° C | 30% | 1020.7 hPa | - | - | - | - |
| 1777610577 | 22.78° C | 29% | 1024.1 hPa | - | - | - | - |
| 1777609377 | 22.78° C | 29% | 1024.4 hPa | - | - | - | - |
| 1777608776 | 23.33° C | 29% | 1022 hPa | - | - | - | - |
| 1777603573 | 24.44° C | 30% | 1020.1 hPa | - | - | - | - |
| 1777602972 | 24.44° C | 29% | 1020.8 hPa | - | - | - | - |
| 1777602372 | 25° C | 29% | 1019.6 hPa | - | - | - | - |
| 1777533621 | 25° C | 28% | 1017.5 hPa | - | - | - | - |
| 1777533020 | 25.56° C | 27% | 1018.8 hPa | - | - | - | - |
| 1777531887 | 26.11° C | 27% | 1017.3 hPa | - | - | - | - |
| 1777531819 | 26.11° C | 27% | 1017.3 hPa | - | - | - | - |
| 1777530018 | 26.67° C | 27% | 1016.1 hPa | - | - | - | - |
| 1777529417 | 26.67° C | 27% | 1014.2 hPa | - | - | - | - |
| 1777527616 | 27.22° C | 27% | 1013.5 hPa | - | - | - | - |
| 1777525814 | 27.78° C | 27% | 1016.4 hPa | - | - | - | - |
| 1777524013 | 28.33° C | 27% | 1013.8 hPa | - | - | - | - |
| 1777522812 | 28.89° C | 27% | 1021 hPa | - | - | - | - |
| 1777521011 | 29.44° C | 26% | 1019 hPa | - | - | - | - |
| 1777520411 | 29.44° C | 26% | 1017.5 hPa | - | - | - | - |
| 1777519210 | 30° C | 26% | 1015.6 hPa | - | - | - | - |
| 1777518610 | 30° C | 26% | 1018.6 hPa | - | - | - | - |
| 1777517409 | 30.56° C | 26% | 1015.6 hPa | - | - | - | - |
| 1777516808 | 30.56° C | 26% | 1014.8 hPa | - | - | - | - |
* Rain since midnight (hover to see other rain measurements)
** Current wind speed in m/s (hover to see current wind gust speed)